Location: Beetenbrück
(52.8113°N, 9.5946°E)
Time: 21:14:48
(UTC+00:00)

CZ-2C R/B - Pass Details

Date: 14 April 2026
Orbit: 702 x 901 km, 98.2° (Epoch: 12 May)

Event Time Altitude Azimuth Distance (km) Brightness Sun altitude
Rises 23:11:03 0° 17° (NNE) 3,194 7.3 -27.5°
Reaches altitude 10° 23:13:20 10° 21° (NNE) 2,291 6.3 -27.5°
Enters shadow 23:17:55 57° 79° (E) 919 3.3 -27.5°
